Temperature
24 24 23 23 25 26 28 28 29 28 28 28 27 27 26 25 23 22 21 21 20 20 19 19 19 19 19 19 19 19 19 18 18 18 18 18 18 18 18 18 18 18 18 18 18 18 18 18 18
24 23 24 26 27 27 27 29 28 28 28 28 27 26 25 24 23 22 21 21 20 20 19 19 19 19 19 19 19 19 19 19 18 18 18 18 18 18 18 18 18 18 18 18 18 18 18 18 18
24 24 26 28 29 28 28 29 29 29 28 28 27 25 25 24 23 22 21 21 21 20 20 20 19 19 19 19 19 18 19 18 18 18 18 18 18 18 18 18 18 18 18 18 18 18 18 18 18
24 27 28 30 30 30 30 30 30 29 29 28 27 25 24 23 23 22 22 21 21 20 19 20 19 19 19 19 19 19 18 18 18 18 18 18 18 18 18 18 18 18 18 18 18 18 18 18 18
26 28 30 31 30 31 31 31 30 29 29 27 26 24 23 23 23 22 22 21 21 20 20 20 20 19 19 19 19 19 19 18 18 18 18 18 18 18 18 18 18 18 18 18 18 18 18 18 18
28 31 31 30 30 31 31 31 30 29 28 27 26 24 23 23 22 22 22 21 21 20 20 20 20 19 19 19 19 19 19 19 19 18 18 18 18 18 18 18 18 18 18 18 18 18 18 18 18
30 31 31 31 31 31 31 31 30 30 29 28 26 25 23 23 22 22 22 22 21 20 20 20 20 19 19 19 19 19 19 19 19 19 18 18 18 18 18 18 18 18 18 18 18 18 18 18 18
32 33 32 32 31 31 31 31 30 29 28 27 27 25 23 23 22 22 22 21 21 21 20 19 19 19 19 19 19 19 19 19 19 18 18 18 18 18 18 18 18 18 18 18 18 18 18 18 18
33 33 32 32 31 31 32 31 30 29 28 27 26 25 24 23 23 22 22 21 21 20 20 20 20 19 19 19 19 19 19 19 19 18 18 18 18 18 18 18 18 18 18 18 18 18 18 18 18
34 33 33 33 33 32 32 31 30 29 28 27 25 24 24 23 23 22 22 21 21 20 20 20 20 20 19 19 19 19 19 19 18 18 18 18 18 18 18 18 18 18 18 18 18 18 18 18 18
35 34 34 34 33 33 32 31 30 30 28 27 25 24 24 24 23 23 22 22 21 21 20 20 20 20 19 19 19 19 18 18 18 18 18 18 18 18 18 18 18 18 18 18 18 18 18 18 18
35 35 34 34 33 33 32 31 31 30 29 27 26 25 24 24 23 23 22 22 21 21 20 20 20 19 19 19 19 19 19 19 18 18 18 18 18 18 18 18 18 18 18 18 18 18 18 18 18
35 34 34 34 33 33 32 31 30 29 28 27 26 25 25 24 24 23 22 22 21 21 20 20 19 19 19 19 19 19 19 19 19 19 18 18 18 18 18 18 18 18 18 18 18 18 18 18 18
34 34 34 34 33 33 32 31 30 29 28 27 27 26 25 25 24 23 22 22 21 20 20 20 19 19 19 19 19 19 19 19 19 19 18 18 18 18 18 18 18 18 18 18 18 18 18 18 18
34 34 33 34 34 33 31 30 29 29 28 28 27 26 26 25 24 23 22 22 21 20 20 20 19 19 19 19 19 19 19 19 19 19 18 18 18 18 18 18 18 18 18 18 18 18 18 18 18
34 33 31 33 34 33 31 28 30 29 29 28 27 27 26 25 24 23 22 22 21 20 20 20 20 19 19 19 19 19 19 19 19 19 18 18 18 18 18 18 18 18 18 18 18 18 18 18 18
33 32 31 33 34 33 32 30 31 30 29 29 28 27 26 25 24 23 23 22 21 20 20 20 20 19 19 19 19 19 19 19 19 19 19 18 18 18 18 18 18 18 18 18 18 18 18 18 18
32 32 32 32 34 34 32 31 31 30 30 29 28 27 26 25 25 24 23 22 21 20 20 20 20 19 19 19 19 19 19 19 19 19 19 18 18 18 18 18 18 18 18 18 18 18 18 18 18
34 33 33 33 34 34 33 32 31 31 31 30 29 28 27 26 25 24 23 23 21 21 20 20 20 19 19 19 19 19 19 19 19 19 19 19 18 18 18 18 18 18 18 18 18 18 18 18 18
35 34 33 33 34 34 33 32 32 32 32 30 29 28 27 26 25 24 24 23 22 21 20 20 20 20 20 20 19 19 19 19 19 19 19 18 18 18 18 18 18 18 18 18 18 18 18 18 18
34 34 34 33 33 33 33 31 30 31 32 31 30 29 28 27 26 25 24 23 22 21 21 20 20 20 20 20 19 19 19 19 19 19 19 19 18 18 18 18 19 18 18 18 18 18 18 18 18
34 35 35 34 33 32 32 29 29 30 31 31 30 29 28 28 26 25 24 23 23 22 21 20 20 20 20 20 20 19 19 19 19 19 19 19 18 18 18 18 18 18 18 18 18 18 18 18 18
35 36 35 34 33 32 32 31 29 30 30 30 30 30 29 28 27 26 25 24 23 22 21 21 20 20 20 20 20 19 19 19 19 19 19 19 18 18 18 18 18 18 18 18 18 18 18 18 18
36 35 34 33 32 31 31 31 29 29 29 29 30 30 29 29 27 26 25 24 23 23 22 21 20 20 20 20 19 19 19 19 19 19 19 19 18 18 18 18 18 18 18 18 18 18 18 18 18
35 33 31 31 30 30 32 31 30 31 31 30 30 31 30 29 28 26 25 24 23 23 22 21 20 20 20 20 19 19 19 19 19 19 19 19 18 18 18 18 18 18 18 18 18 18 18 17 18
34 33 31 30 30 30 30 30 30 32 32 31 31 31 30 29 28 27 25 24 23 23 22 21 20 20 20 20 19 19 19 19 19 19 19 19 18 18 18 18 18 18 18 18 18 17 17 17 17
34 33 34 32 31 29 29 28 30 31 32 32 31 30 30 29 28 27 26 25 23 23 22 21 20 20 20 20 19 19 19 19 19 19 18 18 18 18 18 18 18 18 18 17 17 17 17 17 17
34 34 33 32 30 29 30 29 28 29 30 31 31 30 30 29 28 27 26 25 23 22 22 21 20 20 20 20 20 19 19 19 19 18 18 18 18 18 18 18 18 18 17 17 17 17 17 17 17
34 33 33 32 32 30 29 28 29 28 30 30 30 30 29 28 28 27 25 25 24 23 22 21 20 20 20 19 19 19 19 19 19 19 18 18 18 18 18 17 17 17 17 17 17 17 17 17 16
34 34 33 32 31 31 30 29 31 30 31 30 30 29 28 28 27 26 25 24 24 23 22 21 21 20 20 19 19 19 19 19 18 18 18 18 18 18 17 17 17 17 17 17 17 17 17 16 16
Wind_Speed
11 12 10 5 3 3 14 15 14 14 14 14 14 14 16 15 11 9 7 8 11 13 14 14 13 13 13 13 13 13 14 13 13 14 14 14 14 14 14 13 13 13 14 14 13 13 13 13 13
10 12 8 4 1 9 13 13 14 13 11 12 15 17 17 16 13 10 8 9 11 13 14 14 13 13 13 13 13 13 13 13 13 13 13 13 13 13 13 13 12 12 13 13 12 12 12 12 12
11 14 6 1 9 13 13 12 11 12 11 13 15 16 13 12 12 9 9 10 13 15 15 14 14 13 12 12 12 12 13 13 12 12 13 13 13 12 12 12 11 11 12 12 12 12 11 11 11
7 6 4 5 16 15 13 11 11 12 12 13 13 12 13 13 11 11 12 12 14 15 15 15 14 13 12 12 12 12 12 12 12 12 12 13 12 12 12 12 11 10 11 11 11 10 10 10 10
8 4 2 11 16 14 12 13 13 13 14 17 17 16 14 13 12 13 13 12 12 14 15 15 14 13 12 12 11 11 11 11 11 12 12 12 12 12 12 11 10 10 10 10 10 9 8 8 9
5 3 5 12 15 13 13 13 13 14 15 16 16 15 11 10 12 11 12 12 13 14 14 14 13 12 12 11 11 11 11 11 11 11 11 11 11 11 11 10 10 9 9 9 9 8 7 7 8
6 2 7 14 14 13 12 12 13 13 13 13 14 14 11 10 10 10 11 12 12 12 12 12 12 11 11 11 11 11 10 10 10 10 10 10 10 10 10 9 9 9 9 9 8 7 7 8 7
3 2 8 12 13 13 13 14 13 13 12 11 11 11 10 10 11 10 11 11 10 9 9 9 11 11 10 10 10 10 10 10 9 9 9 9 10 10 10 10 9 8 8 8 8 7 7 7 6
1 3 9 12 12 12 12 13 13 14 14 13 14 15 14 14 12 11 10 10 8 8 6 6 7 8 8 9 11 10 10 9 9 8 9 9 8 9 9 9 9 8 8 8 8 7 6 6 6
3 6 12 12 12 11 11 11 12 12 14 15 16 15 14 13 12 10 10 9 9 7 6 5 5 6 5 6 8 8 8 9 7 6 6 6 6 7 8 9 9 9 8 8 8 7 7 6 6
8 9 11 12 11 11 11 11 11 11 12 13 14 14 12 11 10 10 9 9 9 7 6 6 6 5 5 4 5 5 6 6 6 5 5 4 5 6 7 7 7 8 9 8 9 8 7 7 6
8 9 10 11 11 10 11 11 11 12 13 15 14 14 12 11 10 10 10 9 8 7 7 7 7 6 5 5 4 5 4 4 4 5 4 4 2 2 4 4 5 6 6 6 6 5 6 5 5
6 7 8 10 10 11 12 11 13 14 15 15 15 13 12 11 11 10 10 9 8 8 8 7 7 5 4 3 1 4 4 4 6 5 4 3 2 2 2 2 3 3 5 5 3 2 3 2 2
3 5 6 7 9 9 11 11 11 13 13 14 13 12 12 11 12 11 9 8 8 7 7 7 7 6 3 2 1 2 4 4 5 4 4 3 2 2 1 1 1 1 2 3 3 3 2 3 2
1 3 4 4 6 8 10 9 9 10 13 13 13 11 11 11 11 11 10 9 9 7 6 6 6 6 3 2 1 2 2 4 3 4 4 4 4 2 1 2 1 1 2 3 3 2 2 2 2
6 4 4 4 5 8 6 8 11 12 13 12 12 12 11 9 10 11 11 9 9 8 6 4 5 7 5 2 1 1 1 3 3 3 4 3 4 2 1 2 1 1 1 1 2 2 1 1 1
8 5 5 6 5 6 5 8 12 13 12 12 12 12 12 10 10 11 11 10 9 8 7 4 4 6 5 4 2 1 1 2 2 3 3 3 3 2 1 1 1 1 1 0 1 1 1 1 1
6 4 4 4 5 6 6 9 13 13 13 13 12 12 12 12 10 11 11 11 10 9 7 6 5 4 4 4 2 1 1 2 2 3 3 3 2 2 2 2 0 1 1 1 0 1 1 1 2
8 4 3 2 3 3 5 9 11 13 13 13 13 13 13 12 12 11 11 11 11 9 7 6 6 5 3 2 2 2 2 2 2 2 4 3 2 2 1 1 1 0 1 1 1 1 1 2 2
9 7 5 3 5 4 4 6 9 12 12 13 14 14 14 14 13 12 11 11 11 9 8 7 6 6 5 3 2 2 2 2 2 2 3 3 3 2 2 1 1 1 1 0 1 1 1 2 1
10 9 6 6 5 5 5 4 6 9 10 13 13 13 14 15 15 14 12 11 11 10 9 7 6 5 4 5 3 2 2 1 2 2 3 2 2 2 1 2 0 1 1 1 2 1 1 1 2
10 9 7 6 6 6 7 3 6 9 9 11 13 13 13 14 15 14 13 12 12 11 10 8 7 6 5 4 3 3 3 2 2 2 2 2 2 2 2 2 1 1 1 1 2 1 2 1 2
11 7 6 7 6 8 6 3 5 7 8 8 9 13 14 14 15 15 14 12 12 11 11 9 7 6 5 4 3 2 2 1 1 2 3 2 3 3 3 3 2 1 1 1 2 0 1 1 2
10 9 9 9 8 9 8 6 4 6 9 9 11 12 14 14 14 14 13 12 11 10 10 10 8 6 5 4 3 2 1 1 1 1 2 2 3 3 3 3 2 2 1 1 2 1 1 1 2
11 10 8 9 8 7 7 4 3 8 10 11 13 13 14 15 14 14 14 12 11 10 10 10 9 7 5 4 3 3 2 2 2 2 2 2 1 2 2 2 2 1 1 2 2 1 2 2 2
13 14 11 9 8 5 5 2 2 4 8 10 9 9 13 15 14 14 14 13 11 11 10 10 9 7 6 5 4 3 3 2 1 1 1 1 0 1 2 2 2 2 1 1 1 1 2 1 2
14 14 12 11 11 6 4 3 3 1 3 8 9 10 11 13 13 13 13 13 12 10 8 8 9 8 7 6 5 3 2 1 0 1 1 0 0 1 2 2 2 2 1 1 1 1 1 1 2
15 14 9 10 7 8 5 3 3 4 5 5 8 9 9 11 12 13 13 13 12 11 10 9 9 8 6 6 5 5 3 2 1 1 1 1 1 1 1 1 1 1 1 1 1 1 1 1 1
16 16 11 9 9 8 5 2 4 6 5 6 8 9 9 10 11 12 11 12 12 12 12 10 9 8 7 5 4 3 4 3 2 2 2 1 1 1 1 1 0 1 1 1 1 1 1 1 1
15 14 13 10 9 9 6 3 5 5 6 7 9 10 9 9 9 11 11 11 10 11 12 10 10 9 7 6 5 4 4 3 3 2 2 2 1 1 0 0 0 1 0 0 1 1 1 1 1
Wind_Direction
190 207 212 232 252 67 59 59 58 59 60 60 60 63 60 58 69 91 106 102 103 104 107 99 91 90 92 93 92 93 94 96 98 99 100 101 101 101 102 103 102 103 104 106 107 109 111 113 118
213 220 223 236 61 68 64 62 64 64 71 73 69 70 69 70 81 95 105 105 105 104 102 98 96 93 94 95 95 95 95 98 99 100 101 101 101 102 104 105 105 106 108 109 111 112 114 119 123
243 245 252 218 62 65 67 68 74 78 78 78 73 64 64 76 85 101 113 114 102 99 102 102 103 96 95 97 97 97 95 97 100 100 101 102 103 103 103 105 107 110 111 111 113 117 120 125 129
251 242 236 76 70 70 75 79 77 81 77 78 81 74 70 77 94 108 113 105 103 107 106 108 109 104 102 101 99 99 99 99 101 102 101 101 103 104 105 105 105 109 110 110 112 116 123 130 137
251 262 121 76 74 74 74 78 78 77 79 80 84 87 83 87 95 101 105 107 104 105 110 114 116 114 110 108 105 104 104 105 106 106 107 107 108 109 109 110 109 108 112 111 112 115 125 137 146
260 243 90 82 82 79 76 81 88 83 89 95 96 96 94 99 98 97 100 101 103 106 108 116 118 120 119 115 112 111 113 116 115 115 115 116 116 117 116 114 112 110 114 116 116 118 124 139 155
253 348 81 90 89 83 80 79 84 87 87 93 105 104 107 101 100 99 99 98 100 107 114 119 127 126 127 123 123 123 124 127 127 125 127 128 128 127 127 124 122 121 120 124 122 122 127 142 155
270 58 78 85 89 87 83 81 82 86 86 96 108 108 117 121 115 106 98 94 94 99 111 128 133 139 140 134 132 133 138 143 143 143 143 145 145 142 141 135 133 132 131 132 134 132 130 144 157
261 65 72 81 90 94 91 90 92 93 89 81 86 105 121 129 121 112 102 103 100 97 101 110 121 137 142 137 139 150 150 148 149 154 159 161 160 152 152 137 142 145 147 147 151 151 154 161 177
81 71 73 79 94 100 97 98 104 104 98 95 97 108 123 129 131 126 119 117 114 112 114 112 111 111 119 121 135 156 154 153 160 150 170 184 163 148 140 147 157 160 162 165 170 172 181 190 195
78 77 78 84 91 100 99 97 101 101 107 113 120 128 133 133 132 124 121 121 118 118 111 114 101 97 91 100 135 144 142 150 152 145 164 161 147 146 144 152 163 173 176 183 178 186 207 206 205
81 81 84 89 94 100 100 98 96 95 105 118 126 134 137 140 130 124 122 115 118 116 112 102 88 72 67 72 95 124 131 143 134 146 159 140 147 148 143 153 172 180 182 179 180 190 199 208 197
86 89 90 99 101 100 96 92 95 102 112 122 130 135 137 135 126 120 118 120 116 112 106 100 98 85 69 66 53 116 120 131 133 144 136 131 128 118 117 143 172 184 174 165 165 173 173 167 187
97 110 106 110 112 113 105 96 99 115 123 130 134 138 139 132 127 126 127 124 119 114 113 115 116 114 105 99 60 105 126 135 132 135 124 132 119 104 120 141 142 156 159 165 162 180 181 178 178
203 140 129 132 129 119 110 104 111 136 134 140 140 139 134 134 132 137 137 140 132 125 119 121 133 128 127 128 160 114 124 123 118 117 125 126 125 130 146 138 163 157 177 175 176 181 176 190 183
238 204 169 191 166 136 130 133 148 159 149 148 147 144 141 141 140 140 141 141 135 134 132 147 141 135 144 141 85 84 96 109 109 119 122 118 126 165 146 138 161 158 162 163 173 186 171 165 156
240 213 198 199 183 158 161 147 155 164 157 155 153 151 150 153 150 145 148 146 142 140 141 145 120 132 148 147 146 138 103 93 116 119 120 130 142 153 129 97 61 201 146 167 210 137 147 171 176
245 218 197 197 191 170 152 143 159 169 165 162 159 157 159 162 160 154 153 150 146 141 143 146 143 142 150 141 162 174 119 137 132 122 120 134 160 153 127 138 190 231 151 164 129 124 147 209 219
247 231 226 194 204 192 163 155 165 173 172 163 165 165 167 166 162 157 159 154 148 145 148 151 153 150 154 145 180 169 156 159 142 143 132 144 162 150 137 107 173 180 131 156 146 150 206 221 206
245 243 224 191 212 227 200 172 171 174 177 170 171 171 170 169 164 163 166 162 155 153 154 156 163 162 167 165 187 187 174 179 151 128 136 155 152 174 165 134 219 131 160 163 274 192 235 256 203
255 260 249 215 217 235 238 184 173 183 183 172 173 174 175 172 168 168 171 166 161 162 166 166 159 164 170 179 184 184 166 192 150 155 155 164 173 178 121 139 188 243 205 175 248 248 241 262 268
250 260 268 257 245 245 233 209 202 187 186 176 173 173 182 174 169 168 171 172 169 168 167 158 159 162 170 186 183 194 180 175 175 162 148 174 197 187 171 164 166 250 265 187 249 187 265 252 267
254 266 274 274 269 270 251 227 183 180 182 180 187 181 179 173 170 169 173 172 171 170 165 160 157 163 171 182 182 209 187 183 156 134 151 185 198 202 190 163 157 221 251 222 274 269 262 277 274
254 260 264 264 258 256 251 250 175 171 180 180 197 190 176 171 170 167 167 163 165 164 159 156 156 161 169 185 177 192 174 190 201 171 177 202 187 195 183 154 156 201 217 212 242 247 252 255 279
242 250 253 250 240 252 268 253 164 156 161 178 190 181 171 169 168 167 165 162 162 161 159 154 153 161 171 178 172 180 190 217 212 202 188 215 193 171 144 142 144 189 221 214 239 216 251 251 263
233 242 245 256 256 244 272 276 198 148 148 160 162 159 163 165 165 167 166 163 165 164 161 155 155 164 169 171 178 184 193 215 196 187 211 207 283 129 128 147 155 182 212 228 224 235 244 238 256
242 245 248 259 271 268 211 191 156 147 143 139 142 153 164 162 162 162 162 162 161 158 157 156 155 165 170 173 171 164 163 190 169 160 193 47 48 132 113 147 160 176 197 232 222 214 263 268 257
247 255 252 254 259 267 250 208 199 193 174 152 141 144 150 152 155 156 160 157 157 162 161 161 163 163 167 171 173 165 162 174 166 112 99 59 41 42 89 128 137 168 197 214 222 229 233 236 255
226 239 248 261 265 260 259 241 182 182 173 156 140 144 153 152 150 150 151 157 162 165 164 167 162 161 167 171 159 150 157 154 129 120 98 86 52 53 91 131 149 164 221 215 232 250 247 249 266
235 239 241 247 260 269 264 201 178 168 165 150 140 139 139 140 140 144 148 154 161 166 165 165 164 166 170 163 154 154 144 142 143 137 125 116 100 74 43 213 257 246 250 230 235 256 276 285 318
Height
1470 1470 1471 1474 1473 1474 1474 1470 1467 1469 1471 1473 1474 1475 1480 1483 1489 1501 1502 1500 1501 1501 1501 1501 1502 1502 1503 1504 1504 1505 1506 1507 1508 1509 1510 1511 1512 1513 1514 1516 1517 1518 1520 1521 1522 1524 1525 1526 1528
1470 1471 1474 1473 1473 1480 1480 1471 1472 1473 1474 1475 1477 1480 1484 1489 1494 1499 1501 1502 1503 1503 1503 1503 1504 1505 1505 1506 1507 1508 1509 1510 1511 1512 1513 1514 1515 1516 1517 1518 1519 1521 1522 1523 1524 1526 1527 1528 1530
1470 1472 1473 1467 1468 1477 1480 1472 1472 1473 1475 1477 1481 1485 1489 1494 1498 1500 1502 1503 1504 1504 1504 1505 1506 1506 1507 1508 1509 1510 1511 1512 1513 1514 1515 1516 1517 1518 1519 1520 1522 1523 1524 1525 1526 1527 1528 1530 1531
1472 1471 1469 1465 1471 1470 1471 1471 1471 1474 1477 1479 1483 1489 1495 1498 1500 1502 1503 1505 1505 1506 1506 1507 1507 1508 1509 1510 1511 1512 1513 1514 1515 1516 1517 1518 1519 1520 1521 1523 1523 1525 1526 1526 1527 1528 1529 1530 1532
1472 1470 1467 1467 1470 1468 1468 1470 1474 1476 1479 1483 1488 1494 1499 1502 1503 1504 1505 1506 1507 1508 1508 1509 1509 1510 1511 1511 1512 1513 1514 1515 1517 1518 1519 1520 1521 1522 1523 1524 1525 1526 1527 1528 1528 1528 1529 1530 1532
1470 1463 1468 1474 1473 1469 1469 1472 1475 1478 1482 1486 1491 1496 1503 1505 1505 1506 1507 1508 1509 1510 1510 1510 1511 1512 1512 1513 1514 1515 1516 1517 1518 1519 1520 1522 1523 1524 1525 1526 1527 1527 1528 1529 1529 1528 1527 1528 1531
1468 1462 1466 1468 1473 1473 1472 1474 1476 1480 1483 1487 1492 1497 1503 1506 1507 1508 1509 1510 1511 1512 1512 1512 1513 1513 1514 1514 1515 1516 1517 1518 1520 1521 1522 1523 1524 1525 1526 1527 1528 1529 1529 1530 1530 1529 1528 1529 1532
1462 1460 1464 1467 1473 1475 1473 1476 1479 1482 1486 1490 1492 1497 1504 1508 1509 1509 1511 1512 1513 1514 1514 1514 1515 1515 1515 1515 1516 1517 1518 1519 1521 1522 1524 1525 1526 1527 1528 1528 1529 1530 1530 1531 1531 1531 1531 1532 1534
1460 1463 1468 1467 1471 1473 1474 1477 1481 1485 1488 1492 1494 1499 1505 1508 1509 1511 1512 1513 1514 1516 1516 1517 1517 1517 1517 1517 1516 1516 1518 1520 1522 1523 1525 1526 1527 1528 1529 1530 1530 1531 1532 1532 1533 1534 1534 1535 1537
1458 1465 1466 1463 1466 1471 1474 1477 1481 1485 1490 1495 1499 1503 1506 1509 1510 1512 1513 1515 1516 1517 1518 1518 1518 1519 1518 1517 1516 1516 1519 1521 1523 1525 1526 1528 1529 1530 1530 1531 1531 1532 1533 1534 1535 1536 1536 1537 1538
1459 1462 1462 1464 1467 1471 1474 1478 1481 1485 1491 1496 1500 1504 1507 1509 1511 1513 1515 1516 1517 1518 1519 1519 1520 1520 1519 1518 1517 1518 1520 1523 1525 1527 1528 1529 1530 1531 1531 1531 1532 1533 1534 1535 1536 1537 1538 1539 1540
1461 1462 1463 1466 1469 1472 1475 1479 1482 1486 1492 1497 1501 1505 1508 1510 1512 1514 1515 1517 1518 1519 1520 1520 1521 1521 1521 1520 1520 1521 1523 1525 1527 1528 1529 1530 1531 1531 1532 1532 1533 1533 1535 1536 1537 1538 1538 1539 1541
1462 1464 1465 1468 1471 1473 1477 1480 1484 1489 1494 1498 1502 1505 1508 1510 1512 1514 1516 1518 1519 1520 1521 1521 1521 1521 1522 1522 1523 1525 1526 1527 1528 1529 1530 1531 1532 1532 1533 1533 1533 1535 1536 1537 1538 1538 1540 1541 1541
1464 1464 1466 1468 1470 1474 1478 1482 1486 1491 1495 1498 1502 1505 1508 1510 1513 1515 1517 1519 1520 1521 1522 1522 1522 1523 1523 1524 1525 1527 1528 1529 1530 1530 1531 1532 1532 1533 1533 1534 1534 1535 1536 1537 1538 1539 1540 1541 1541
1466 1466 1468 1468 1469 1473 1478 1487 1489 1491 1494 1498 1501 1505 1508 1511 1513 1515 1517 1519 1520 1521 1522 1522 1523 1524 1524 1526 1527 1528 1529 1530 1531 1531 1532 1532 1532 1533 1533 1534 1534 1535 1536 1537 1538 1539 1539 1540 1541
1466 1470 1478 1471 1467 1470 1480 1493 1488 1490 1493 1496 1500 1504 1508 1511 1513 1515 1517 1519 1520 1521 1522 1523 1525 1524 1525 1526 1528 1529 1530 1531 1531 1532 1532 1532 1532 1533 1534 1534 1535 1536 1537 1537 1538 1538 1539 1540 1540
1469 1477 1479 1472 1464 1467 1474 1485 1484 1487 1491 1494 1498 1502 1506 1510 1512 1515 1517 1518 1520 1521 1522 1523 1524 1525 1526 1527 1528 1529 1530 1531 1531 1532 1532 1532 1533 1533 1534 1534 1535 1536 1536 1537 1537 1538 1538 1539 1540
1475 1474 1474 1473 1463 1464 1471 1477 1480 1483 1487 1491 1495 1500 1504 1508 1511 1514 1516 1518 1519 1520 1522 1523 1524 1525 1526 1527 1528 1529 1530 1531 1531 1532 1532 1532 1533 1533 1534 1534 1534 1536 1536 1536 1537 1537 1537 1538 1539
1461 1466 1472 1467 1460 1463 1469 1474 1475 1479 1482 1487 1492 1497 1501 1505 1509 1512 1515 1517 1519 1520 1521 1522 1524 1524 1526 1527 1528 1529 1530 1530 1531 1532 1532 1532 1533 1533 1533 1534 1534 1535 1535 1536 1536 1536 1537 1537 1538
1457 1463 1466 1465 1459 1462 1466 1470 1471 1474 1478 1483 1488 1493 1498 1502 1506 1510 1513 1516 1517 1519 1520 1521 1523 1524 1525 1526 1527 1529 1529 1530 1531 1531 1531 1532 1532 1533 1533 1533 1533 1534 1534 1534 1535 1535 1535 1536 1537
1457 1459 1461 1464 1460 1460 1467 1476 1475 1473 1474 1479 1484 1489 1494 1498 1503 1507 1511 1514 1516 1518 1519 1521 1522 1523 1525 1526 1527 1529 1529 1530 1530 1531 1531 1531 1532 1532 1533 1532 1532 1533 1533 1533 1534 1534 1534 1535 1536
1461 1451 1452 1457 1466 1472 1469 1491 1482 1473 1474 1476 1480 1486 1491 1495 1499 1504 1508 1511 1514 1516 1518 1520 1521 1522 1524 1525 1527 1528 1528 1529 1529 1530 1530 1531 1531 1532 1532 1532 1532 1532 1532 1532 1533 1533 1533 1534 1534
1452 1447 1452 1457 1464 1473 1469 1481 1485 1474 1477 1477 1479 1482 1487 1491 1496 1501 1505 1509 1512 1515 1517 1518 1520 1521 1522 1524 1525 1526 1527 1528 1529 1529 1529 1530 1530 1531 1531 1531 1531 1531 1531 1531 1531 1532 1532 1532 1532
1447 1451 1455 1457 1465 1485 1473 1476 1485 1476 1474 1474 1476 1478 1483 1488 1493 1498 1502 1506 1510 1513 1515 1517 1518 1520 1521 1523 1524 1525 1526 1527 1528 1528 1528 1529 1529 1530 1530 1530 1530 1530 1530 1530 1531 1531 1531 1531 1531
1450 1464 1481 1487 1488 1488 1467 1472 1477 1464 1461 1465 1471 1474 1479 1485 1490 1495 1500 1503 1507 1511 1513 1515 1517 1519 1520 1522 1523 1524 1525 1526 1526 1527 1528 1528 1529 1529 1529 1529 1528 1529 1529 1529 1530 1530 1530 1530 1530
1451 1459 1481 1496 1494 1487 1476 1480 1472 1457 1458 1461 1466 1470 1476 1482 1487 1492 1497 1501 1505 1509 1511 1514 1515 1517 1519 1520 1521 1523 1524 1525 1525 1526 1527 1527 1527 1528 1527 1527 1527 1527 1528 1528 1528 1528 1528 1529 1529
1451 1453 1450 1466 1474 1486 1483 1481 1469 1461 1459 1461 1465 1469 1474 1479 1484 1489 1494 1498 1503 1506 1509 1512 1514 1516 1517 1518 1520 1521 1522 1523 1524 1525 1525 1526 1526 1526 1526 1526 1526 1526 1527 1527 1527 1527 1527 1527 1527
1443 1445 1452 1465 1484 1493 1485 1485 1483 1472 1466 1464 1465 1469 1473 1478 1483 1487 1492 1496 1500 1505 1507 1510 1512 1514 1516 1517 1518 1520 1521 1522 1523 1523 1524 1524 1525 1525 1525 1525 1525 1525 1526 1526 1526 1525 1525 1525 1525
1446 1448 1450 1456 1460 1481 1494 1493 1468 1467 1464 1464 1466 1469 1473 1477 1481 1486 1490 1495 1499 1503 1505 1507 1511 1513 1514 1516 1517 1519 1520 1521 1521 1522 1522 1522 1523 1523 1523 1524 1524 1524 1524 1524 1524 1524 1524 1524 1524
1436 1441 1447 1463 1466 1462 1474 1483 1458 1458 1459 1462 1465 1468 1473 1477 1480 1485 1489 1493 1497 1501 1504 1507 1509 1511 1513 1514 1515 1517 1518 1519 1520 1520 1520 1520 1521 1521 1522 1522 1522 1522 1523 1523 1523 1523 1523 1522 1522